Location: Unspecified
(0.0000°N, 0.0000°E)
Time: 22:51:46
(UTC+00:00)

ISS - Pass Details

Date: 06 December 2025
Orbit: 416 x 421 km, 51.6° (Epoch: 08 December)

Event Time Altitude Azimuth Distance (km) Brightness Sun altitude
Rises 18:21:31 0° 324° (NW) 2,340 0.2 -7.0°
Reaches altitude 10° 18:23:36 10° 323° (NW) 1,480 -0.8 -7.5°
Maximum altitude 18:26:56 84° 235° (SW) 420 -3.7 -8.2°
Drops below altitude 10° 18:30:16 10° 146° (SSE) 1,485 -1.1 -9.0°
Sets 18:32:21 0° 146° (SE) 2,349 -0.1 -9.5°
